Regional Weather Roundup
Issued by NWS

Home | Current Version | Previous Version | Graphics & Text | Print | Product List | Glossary On
Versions: 1 2 3 4 5 6 7 8 9 10 11 12 13 14 15 16 17 18 19 20 21 22 23 24 25 26 27 28 29 30 31 32 33 34 35 36 37 38 39 40 41 42 43 44 45 46 47 48 49 50
000
ASUS43 KDMX 262107
RWRIA

WEATHER ROUNDUP FOR IOWA
NATIONAL WEATHER SERVICE DES MOINES IA
400 PM CDT WED AUG 26 2015

NOTE: "FAIR" INDICATES FEW OR NO CLOUDS BELOW 12,000 FEET WITH NO
SIGNIFICANT WEATHER AND/OR OBSTRUCTIONS TO VISIBILITY.

* - THESE STATIONS ARE NOT NWS STATIONS...THUS NOT UNDER NWS
QUALITY CONTROL.  THEY ALSO DO NOT REPORT WEATHER SUCH
AS PRECIPITATION OR FOG.

IAZ001>003-012>014-020>022-031>034-043>046-262200-
   NORTHWEST IOWA

CITY           SKY/WX    TMP DP  RH WIND       PRES   REMARKS
CARROLL *      SUNNY     73  59  60 SE6       30.14F
CHEROKEE *     MOSUNNY   75  59  57 SE7       30.13F
DENISON *      SUNNY     73  61  64 S7        30.11F
LE MARS *      SUNNY     75  63  64 S10       30.12S
ORANGE CITY *  SUNNY     75  61  60 SE8       30.12F
SHELDON *      SUNNY     73  57  56 SE10G22   30.12F
SIOUX CITY     SUNNY     78  61  55 SE10      30.11S HX  80
SPENCER        MOSUNNY   74  53  48 SE10      30.14F
STORM LAKE *   SUNNY     72  57  60 SE7       30.14F
$$

IAZ055>058-069>071-079>083-090>094-262200-
   SOUTHWEST IOWA

CITY           SKY/WX    TMP DP  RH WIND       PRES   REMARKS
ATLANTIC *     SUNNY     75  59  57 S6        30.13F
AUDUBON *      SUNNY     75  61  60 S6        30.14F
CLARINDA *     SUNNY     77  63  61 S7        30.13F
COUNCIL BLFS * SUNNY     75  63  64 SE10      30.12F
CRESTON *      SUNNY     73  55  53 SE7       30.15F
HARLAN  *      SUNNY     73  66  78 SE7       30.15F
LAMONI         SUNNY     75  53  46 S6        30.13F
RED OAK *      SUNNY     77  61  57 VRB5      30.13F
SHENANDOAH *   SUNNY     77  63  61 SE7G13    30.12S
$$

IAZ047>049-059>061-072>074-084-262200-
   CENTRAL IOWA

CITY           SKY/WX    TMP DP  RH WIND       PRES   REMARKS
AMES           MOSUNNY   73  53  49 W5        30.14S
ANKENY *       SUNNY     75  54  46 CALM      30.13S
CHARITON *     SUNNY     75  55  50 SE8       30.12F
DES MOINES     PTSUNNY   76  50  40 SE8       30.14S
GRINNELL*      SUNNY     73  54  49 E6        30.15F
KNOXVILLE *    SUNNY     73  54  49 SE6       30.12F
MARSHALLTOWN   SUNNY     73  53  49 SE6       30.13F
PELLA *        SUNNY     77  57  50 SE3       30.14F
PERRY *          N/A     73  52  46 S3        30.14F
$$

IAZ004>006-015-016-023>025-035-036-262200-
   NORTH CENTRAL IOWA

CITY           SKY/WX    TMP DP  RH WIND       PRES   REMARKS
ALGONA *       SUNNY     73  50  43 VRB3      30.16F
CLARION *      SUNNY     73  55  53 SE3       30.15S
ESTHERVILLE    SUNNY     72  53  51 SE5       30.15F
FORT DODGE *   SUNNY     73  52  46 SE5       30.16F
MASON CITY     SUNNY     74  51  44 CALM      30.16F
FOREST CITY *  SUNNY     72  50  46 CALM      30.16S
IOWA FALLS *     N/A     75  54  46 SE3       30.16S
$$

IAZ007>011-017>019-026>030-037>042-050>054-066-262200-
   NORTHEAST IOWA

CITY           SKY/WX    TMP DP  RH WIND       PRES   REMARKS
CEDAR RAPIDS   SUNNY     75  55  49 NW3       30.13F
CHARLES CITY * SUNNY     73  54  49 NE6       30.14F
CLINTON *      PTSUNNY   72  55  56 N5        30.17F
DECORAH *      SUNNY     73  50  43 VRB6      30.14F
DUBUQUE        SUNNY     74  53  48 NW6       30.15F
MONTICELLO *   SUNNY     75  55  50 VRB7      30.14F
OELWEIN *      SUNNY     73  52  46 CALM      30.15F
WATERLOO       SUNNY     77  51  40 CALM      30.13F
$$

IAZ064-065-067-068-078-262200-
   EAST CENTRAL IOWA

CITY           SKY/WX    TMP DP  RH WIND       PRES   REMARKS
DAVENPORT      SUNNY     75  54  47 CALM      30.15F
IOWA CITY      SUNNY     77  53  43 VRB3      30.15F
MT. PLEASANT * SUNNY     79  46  31 N3        30.15F
MUSCATINE *    SUNNY     77  54  44 CALM      30.14F
QUAD CITIES    PTSUNNY   78  53  41 NW7       30.14F
$$

IAZ062-063-075>077-085>089-095>099-262200-
   SOUTHEAST IOWA

CITY           SKY/WX    TMP DP  RH WIND       PRES   REMARKS
BURLINGTON     SUNNY     77  54  44 W6        30.15F
FAIRFIELD *    SUNNY     75  52  43 NW5       30.15F
FORT MADISON * SUNNY     75  57  53 W6        30.15F
KEOKUK *       HAZE      77  54  44 CALM      30.14F VSB 3/4
OSKALOOSA *      N/A     75  52  43 CALM      30.15F
CENTERVILLE *  SUNNY     73  50  43 NE3       30.16F
OTTUMWA        SUNNY     77  55  46 VRB3      30.13F
WASHINGTON *     N/A    N/A N/A N/A MISG        N/A
$$

ABBREVIATIONS USED IN REMARKS
   TC - TEMPERATURES IN CELSIUS
  WCI - WIND CHILL INDEX
   HX - HEAT INDEX
  VSB - VISIBILITY
$$



USA.gov is the U.S. government's official web portal to all federal, state and local government web resources and services.